{"data":{"norad_id":68945,"intl_designator":"2026-098AC","name":"KUIPER-00451","alt_names":[],"object_type":"PAYLOAD","status":"ACTIVE","operator":null,"country":"US","launch_date":"2026-04-30","launch_site_code":"FRGUI","launch_vehicle":null,"mission":null,"orbit_class":"UNKNOWN","rcs_meters":null,"size_class":null,"mass_kg":null,"dimensions":null,"purposes":[],"wikipedia_slug":null,"has_3d_model":false,"image_url":null,"decayed_at":null,"tle_current":{"epoch":"2026-05-25T00:00:02.000160Z","epoch_age_seconds":68887,"freshness":"FRESH","line1":"1 68945U 26098AC  26145.00002315  .00043601  00000+0  14878-2 0  9999","line2":"2 68945  51.8781 179.8530 0014218  64.3808 174.5008 15.29813921  4406","mean_motion":15.29813921,"eccentricity":0.0014218,"inclination_deg":51.8781,"raan_deg":179.853,"arg_perigee_deg":64.3808,"mean_anomaly_deg":174.5008,"bstar":0.0014878,"rev_number":440,"period_min":94.129095063974,"perigee_km":466.62233883633,"apogee_km":486.11380946518,"semimajor_km":6854.5050741508,"source":"CELESTRAK","updated_at":"2026-05-25T13:38:08.798181Z"}}}